Lamoni, IA

12:23 PM CDT on April 23, 2018 (GMT -0500)
Lamoni Municipal

Weather History for KLWD - May, 2014

Change the Weather History Date:

Saturday, May 3, 2014

  Actual Average Record
Temperature  
Mean Temperature 61 °F 57 °F  
Max Temperature 73 °F 67 °F 85 °F (1949)
Min Temperature 48 °F 47 °F 29 °F (1976)
Degree Days  
Heating Degree Days 4 8  
Month to date heating degree days 33 26  
Since 1 July heating degree days 6651 5921  
Cooling Degree Days 0 0  
Month to date cooling degree days 0 0  
Year to date cooling degree days 5 7  
Growing Degree Days 10 (Base 50)    
Moisture  
Dew Point 40 °F    
Average Humidity 50    
Maximum Humidity 71    
Minimum Humidity 28    
Precipitation  
Precipitation 0.00 in 0.18 in 1.90 in (1987)
Month to date precipitation 0.01 0.52  
Sea Level Pressure  
Sea Level Pressure 29.90 in    
Wind  
Wind Speed 7 mph (NW)    
Max Wind Speed 15 mph    
Max Gust Speed 19 mph    
Visibility 10 miles    
Events      
T = Trace of Precipitation, MM = Missing Value Source: NWS Daily Summary

Daily Weather History Graph

Daily Weather History Graph

Search for Another Location

Airport or City:

Astronomy

May. 03, 2014 Rise Set
Actual Time 6:11 AM CDT 8:13 PM CDT
Civil Twilight 5:42 AM CDT 8:43 PM CDT
Nautical Twilight 5:05 AM CDT 9:20 PM CDT
Astronomical Twilight 4:26 AM CDT 10:00 PM CDT
Moon 9:41 AM CDT (5/3) No Moon Set
Length of Visible Light 15h 01m
Length of Day
14h 01m
Waxing Crescent, 20% of the Moon is Illuminated
May 3
Waxing Crescent
May 6
First Quarter
May 14
Full
May 21
Last Quarter
May 28
New

Hourly Weather History & Observations

Time (CDT) Temp. Dew Point Humidity Pressure Visibility Wind Dir Wind Speed Gust Speed Precip Events Conditions
12:53 AM 55.9 °F 37.9 °F 51% 29.82 in 10.0 mi NW 6.9 mph - N/A   Overcast
1:53 AM 54.0 °F 41.0 °F 62% 29.83 in 10.0 mi WNW 4.6 mph - N/A   Overcast
2:53 AM 53.1 °F 41.0 °F 64% 29.83 in 10.0 mi NW 4.6 mph - N/A   Overcast
3:53 AM 53.1 °F 37.9 °F 57% 29.84 in 10.0 mi North 6.9 mph - N/A   Overcast
5:53 AM 48.0 °F 39.0 °F 71% 29.87 in 10.0 mi West 5.8 mph - N/A   Clear
6:53 AM 48.9 °F 39.0 °F 69% 29.88 in 10.0 mi WSW 5.8 mph - N/A   Clear
7:53 AM 53.1 °F 43.0 °F 69% 29.90 in 10.0 mi West 3.5 mph - N/A   Clear
8:53 AM 59.0 °F 41.0 °F 51% 29.90 in 10.0 mi West 4.6 mph - N/A   Clear
9:53 AM 63.0 °F 39.9 °F 43% 29.93 in 10.0 mi West 8.1 mph - N/A   Clear
10:53 AM 64.9 °F 36.0 °F 34% 29.93 in 10.0 mi West 11.5 mph - N/A   Clear
11:53 AM 66.9 °F 37.0 °F 33% 29.93 in 10.0 mi West 9.2 mph 18.4 mph N/A   Clear
12:53 PM 68.0 °F 36.0 °F 31% 29.92 in 10.0 mi West 10.4 mph - N/A   Clear
1:53 PM 69.1 °F 36.0 °F 30% 29.91 in 10.0 mi WSW 5.8 mph - N/A   Clear
2:53 PM 71.1 °F 37.9 °F 30% 29.91 in 10.0 mi West 8.1 mph - N/A   Clear
3:53 PM 71.1 °F 37.0 °F 29% 29.88 in 10.0 mi WSW 3.5 mph - N/A   Clear
4:53 PM 73.0 °F 42.1 °F 33% 29.89 in 10.0 mi NNW 6.9 mph - N/A   Clear
5:53 PM 71.1 °F 43.0 °F 36% 29.90 in 10.0 mi NNE 8.1 mph - N/A   Clear
6:53 PM 68.0 °F 44.1 °F 42% 29.91 in 10.0 mi North 8.1 mph - N/A   Clear
7:53 PM 64.0 °F 44.1 °F 48% 29.92 in 10.0 mi ENE 3.5 mph - N/A   Clear
8:53 PM 62.1 °F 42.1 °F 48% 29.93 in 10.0 mi NNE 8.1 mph - N/A   Clear
9:53 PM 60.1 °F 41.0 °F 49% 29.94 in 10.0 mi NNE 5.8 mph - N/A   Clear
10:53 PM 55.9 °F 41.0 °F 57% 29.95 in 10.0 mi NNE 8.1 mph - N/A   Clear
11:53 PM 54.0 °F 42.1 °F 64% 29.95 in 10.0 mi ENE 4.6 mph - N/A   Clear